Theta_e
323 323 323 323 323 324 324 323 322 318 312 311 312 311 310 309 308 310 310 308 308 308 308 309 310 309 308 309 309 309 309 309 308 308 309 309 309 309 308 309 309 309 308 308 306 304 303 302 302 301 301 301 301 300 300 300 300 300 300 301 301 301 301 301 302 302 303 303 304 304 305 305 305 305
320 321 321 321 322 322 322 321 321 316 311 310 311 312 312 310 310 311 310 308 308 308 309 309 310 310 309 309 310 310 310 309 309 309 309 309 309 308 308 308 309 309 308 308 307 305 304 303 303 302 301 301 301 301 300 300 300 300 300 300 300 301 301 301 301 301 301 302 302 302 303 303 304 304
315 316 317 318 319 320 320 320 320 318 313 311 311 312 312 311 311 311 311 310 309 309 309 310 311 310 309 309 310 310 310 309 309 309 309 309 308 308 308 308 309 309 309 309 308 307 306 305 304 303 302 301 301 301 300 300 299 299 299 299 300 300 300 300 300 301 301 301 301 301 301 301 302 302
314 314 315 316 316 317 318 318 319 319 317 313 312 312 312 312 311 311 311 311 311 310 309 310 311 311 309 308 309 310 310 309 309 309 309 309 308 308 308 308 309 309 309 309 309 308 308 307 307 305 304 302 301 301 301 300 299 299 299 299 300 300 300 300 300 300 300 300 300 300 300 300 300 301
315 315 315 315 315 316 317 317 317 319 319 316 315 313 313 312 311 311 310 310 311 311 310 311 311 310 309 309 310 310 310 309 309 309 309 309 309 309 308 309 309 309 309 309 309 309 309 308 308 307 306 305 303 302 301 300 299 299 299 299 299 300 300 300 300 300 300 299 299 299 299 300 300 300
313 314 314 315 315 315 316 316 316 319 319 317 316 315 314 313 312 311 310 309 311 312 311 312 312 311 310 310 310 310 310 310 310 310 310 310 310 309 309 309 309 309 309 309 309 309 309 309 308 308 308 307 305 303 301 300 299 299 299 299 299 300 300 300 300 300 300 300 299 299 299 299 299 299
313 313 313 314 315 315 315 315 315 317 317 316 315 314 314 314 313 312 311 309 312 314 313 313 313 312 311 311 311 311 310 310 310 310 310 310 310 310 309 309 310 310 310 310 310 309 309 309 308 308 308 308 306 303 301 300 299 299 298 299 299 300 301 301 301 300 300 300 299 299 299 298 298 298
313 312 313 314 314 314 315 315 314 315 314 314 314 314 314 314 313 313 311 310 312 315 314 313 314 312 311 312 312 311 311 310 310 309 309 310 310 310 310 310 310 310 310 310 310 310 309 309 308 308 308 307 305 302 300 299 299 298 299 299 299 300 301 301 300 300 300 300 299 299 299 298 298 298
310 310 311 313 314 314 314 314 314 314 314 314 314 314 314 314 314 313 311 311 313 315 314 314 314 313 312 312 313 312 312 311 310 310 310 310 310 310 310 310 310 310 310 310 310 310 309 309 308 308 308 307 304 301 299 299 298 298 299 299 300 300 300 300 300 300 300 300 299 299 298 298 298 297
308 308 309 311 313 314 314 314 314 313 313 313 313 314 314 314 314 313 312 313 314 315 314 314 314 313 313 313 313 313 313 312 311 310 310 310 309 310 310 310 310 310 310 310 310 310 309 309 308 308 308 306 303 300 299 299 298 298 298 299 299 299 300 300 300 300 300 299 299 299 298 298 297 297
310 310 310 310 311 312 312 312 312 311 311 312 313 314 314 314 314 314 313 314 314 314 314 314 314 314 314 314 314 314 313 313 312 312 311 310 310 310 310 310 310 310 310 310 310 309 309 308 308 308 307 304 301 299 299 298 298 298 298 298 299 299 299 299 299 299 299 299 299 299 299 298 297 297
312 311 311 310 310 310 310 311 311 311 311 312 313 314 314 314 315 314 314 314 314 314 314 314 314 314 314 314 314 314 313 313 313 313 312 311 311 310 310 310 310 310 310 310 310 309 309 308 308 308 305 302 299 299 298 298 298 298 299 299 299 299 299 299 299 299 299 299 299 299 299 298 297 297
311 311 311 311 311 310 310 310 311 312 312 313 313 314 314 314 314 315 314 314 314 314 314 314 314 314 314 314 314 314 314 314 314 313 313 312 311 311 311 311 310 311 310 310 310 310 309 309 308 306 303 300 299 298 298 298 298 298 298 299 299 299 299 299 299 298 298 298 299 298 298 298 297 297
311 310 310 310 310 310 310 310 310 312 312 313 313 314 314 314 315 315 315 314 315 314 314 314 314 314 314 314 314 314 314 314 314 314 313 313 312 311 311 311 311 311 311 310 310 309 309 308 306 303 300 299 298 298 297 297 297 297 298 298 298 298 298 297 297 297 297 298 298 298 297 297 297 297
310 310 310 310 310 310 310 310 310 311 312 313 313 313 314 315 315 315 315 315 315 315 315 315 314 314 314 314 314 314 314 314 314 314 314 313 312 312 312 311 311 311 310 310 309 309 308 306 302 300 299 298 298 297 297 297 297 297 297 297 297 297 296 296 296 296 296 296 297 297 297 297 297 297
311 311 311 310 310 310 310 310 311 312 313 314 314 314 315 315 316 315 315 316 316 316 316 315 315 315 315 315 314 314 314 314 314 314 313 313 312 312 311 311 311 310 310 310 309 308 305 302 300 299 298 297 297 297 296 296 296 296 296 296 296 296 296 296 296 296 296 296 296 296 296 297 297 297
312 312 311 311 311 311 312 311 312 312 314 315 316 316 316 316 316 316 316 316 316 315 314 314 314 315 315 315 315 314 314 314 314 313 313 313 312 312 311 311 311 310 310 309 307 304 301 299 298 297 297 297 296 296 296 296 296 296 296 296 296 296 296 296 296 296 296 296 296 296 296 296 296 297
312 311 311 311 312 312 312 313 313 312 313 314 316 316 316 316 316 316 315 315 314 313 313 313 313 313 314 315 315 315 315 314 314 313 313 312 312 311 311 311 310 310 308 305 302 300 299 298 298 297 296 296 296 296 296 296 296 296 296 296 296 296 296 296 296 296 296 296 296 296 295 295 296 296
313 313 313 313 313 313 313 313 313 313 313 314 315 316 317 317 316 316 315 314 313 313 313 313 313 313 313 314 314 314 314 314 314 313 312 312 312 311 311 311 309 307 304 301 300 299 298 297 297 296 296 296 296 296 296 296 296 296 296 296 296 296 296 296 296 296 296 296 296 295 295 295 295 295
314 314 314 314 314 314 314 314 313 313 314 314 315 316 317 317 317 316 315 314 314 314 314 314 314 313 312 312 313 314 314 314 313 313 312 312 312 312 310 308 306 302 300 299 299 298 298 297 296 296 295 296 296 296 296 296 296 296 296 296 296 296 295 296 296 296 296 295 295 294 294 294 294 295
315 315 315 315 314 314 314 315 314 314 314 315 315 316 317 318 318 317 316 315 314 314 315 314 314 313 312 311 312 313 313 313 312 312 312 312 311 310 307 304 301 300 299 299 298 298 297 297 296 295 295 295 296 296 296 296 296 296 295 295 295 295 295 295 295 295 294 294 294 294 294 294 294 294
315 315 315 315 315 315 315 315 315 315 315 315 315 316 317 317 316 316 316 315 314 315 315 314 314 313 311 311 312 312 312 312 312 312 311 310 308 304 302 300 299 299 299 298 298 298 297 296 295 295 295 296 296 296 296 296 296 295 295 295 294 294 294 294 294 294 294 294 294 294 294 294 294 294
317 317 316 316 316 315 315 316 316 316 317 317 316 316 317 316 315 314 314 314 314 315 314 314 313 312 311 310 311 311 311 311 311 310 308 305 302 300 299 299 299 299 299 298 298 297 296 296 295 295 295 296 296 296 296 296 296 295 295 294 294 294 294 293 293 293 294 294 294 294 294 294 294 294
318 318 318 317 317 316 316 316 317 317 318 317 315 314 315 315 315 314 313 313 314 314 314 314 313 311 310 311 311 311 311 310 307 305 302 300 299 299 299 299 299 299 299 298 297 297 296 295 295 295 295 295 295 295 295 296 295 295 294 294 294 294 294 293 294 294 294 294 294 294 294 294 294 294
317 317 317 317 317 317 316 317 317 317 317 317 316 315 315 315 314 313 313 314 314 314 314 313 312 310 310 311 310 309 307 305 303 301 300 299 299 299 299 299 298 299 298 298 296 296 295 295 295 295 295 295 295 295 295 295 295 294 294 294 294 294 294 294 294 294 294 294 294 294 294 294 294 294
315 315 315 315 315 316 316 316 316 316 317 317 317 316 315 315 314 314 314 314 314 314 313 312 310 309 309 308 306 304 303 302 301 301 300 299 299 299 299 299 298 298 298 297 295 295 295 295 295 295 295 294 294 294 294 294 295 294 294 294 294 294 294 294 294 294 294 294 294 294 294 294 294 294
313 313 314 314 314 316 316 315 315 315 316 317 316 315 315 315 314 314 314 314 313 313 311 310 309 308 306 305 304 304 303 302 301 300 299 299 299 299 298 298 298 297 296 295 295 294 294 295 295 294 294 294 293 293 293 294 294 294 294 294 294 294 294 294 294 294 294 294 294 294 294 294 294 293
310 311 312 312 314 315 315 316 316 315 316 316 316 315 315 315 314 314 314 313 312 310 309 308 307 305 304 304 304 304 303 301 300 299 299 299 299 298 298 298 297 296 295 295 295 294 294 294 294 294 293 293 293 293 293 293 294 294 294 294 294 294 294 294 294 294 294 294 294 294 294 294 293 293
307 308 310 311 312 312 313 314 315 315 315 315 315 314 314 314 314 314 314 312 311 309 308 306 305 304 304 305 304 303 301 300 299 299 299 299 298 298 298 297 296 295 295 294 294 294 294 294 293 293 293 292 292 292 292 293 293 293 293 294 294 294 294 294 294 294 294 294 294 294 293 293 293 292
304 305 306 308 310 311 311 312 313 314 314 314 314 314 314 314 313 313 313 312 311 308 306 305 304 305 305 304 302 300 299 299 299 298 298 298 298 298 297 296 295 294 294 294 294 294 293 293 293 292 292 292 292 292 292 292 293 293 293 293 294 294 294 294 294 294 294 294 294 293 293 293 292 292
303 304 305 306 308 309 310 311 311 312 313 313 313 313 313 314 314 313 313 313 311 308 306 305 306 306 304 302 300 299 299 299 298 298 298 298 297 297 296 295 294 294 294 294 294 293 293 292 292 292 292 292 292 292 292 292 292 293 293 293 293 294 294 294 294 294 294 294 293 293 293 292 292 292
303 305 306 307 308 309 310 310 311 311 312 311 311 311 312 313 312 312 311 310 309 307 306 306 306 304 302 300 299 299 298 298 298 298 297 297 296 295 294 294 294 294 294 294 293 293 293 292 292 292 291 291 292 292 292 292 292 293 293 293 294 294 294 294 294 294 293 293 293 293 293 292 292 292
303 304 307 308 309 309 310 310 310 309 309 310 310 310 311 311 311 310 309 307 306 305 305 305 304 302 300 299 299 298 298 298 297 297 296 295 294 294 293 294 294 294 294 294 293 293 293 292 292 292 291 291 291 291 292 292 292 292 293 293 294 294 294 294 294 293 293 292 293 293 293 293 292 292
303 304 305 307 308 309 309 310 309 308 308 309 309 310 310 310 310 309 307 306 305 304 303 302 301 299 299 299 298 298 297 297 296 295 295 294 294 293 293 293 293 293 293 293 293 293 293 292 292 292 291 291 291 291 292 292 293 293 293 294 294 294 294 294 293 293 293 293 293 293 293 293 293 293
302 303 304 305 305 306 306 307 307 307 308 308 309 309 309 309 309 308 306 305 304 302 301 300 299 299 298 298 297 297 296 295 294 294 293 293 293 293 293 293 293 293 293 293 293 293 292 292 292 291 291 291 292 292 292 292 293 293 294 294 294 294 294 293 293 293 293 292 292 292 293 293 293 293
302 302 303 303 303 303 303 304 306 307 308 308 308 308 308 308 308 307 305 303 301 300 300 299 298 298 297 297 296 295 294 294 293 293 293 293 293 293 293 293 293 292 292 292 292 292 291 291 291 291 291 291 292 293 293 293 293 293 294 294 294 294 293 293 293 293 292 292 292 292 293 293 293 293
301 301 302 302 301 301 302 304 306 308 308 307 307 306 306 306 305 304 302 300 299 299 298 298 297 296 296 295 294 293 293 293 293 293 292 292 293 293 293 293 292 292 292 291 291 291 291 291 291 291 291 291 292 293 293 293 293 293 293 294 294 293 293 293 293 292 292 292 292 292 293 293 293 293
300 301 301 302 302 301 301 303 305 307 306 305 304 303 304 304 302 300 299 298 298 297 297 296 296 295 294 293 293 293 293 293 292 292 292 292 292 292 292 292 292 292 291 291 290 290 290 291 291 291 291 291 291 292 293 293 293 293 293 293 293 293 292 292 292 292 292 292 292 292 292 292 292 292
300 300 300 301 302 303 303 303 304 304 305 304 302 301 301 301 299 298 298 297 297 297 296 296 295 294 293 293 293 293 292 292 292 292 292 292 292 292 292 292 292 291 290 290 290 291 291 291 292 291 291 291 291 291 292 292 293 293 293 293 293 292 292 293 293 293 293 292 292 292 292 292 292 292
300 300 300 300 301 301 302 302 302 303 303 303 302 300 299 298 298 298 298 298 297 297 297 296 295 294 293 293 293 292 291 291 291 291 291 291 292 292 292 291 291 290 290 290 291 291 291 291 291 291 291 291 291 291 292 292 293 293 293 292 292 292 293 293 293 293 293 292 292 291 291 291 291 291
299 299 299 300 300 300 300 301 301 301 301 300 299 298 298 298 299 299 299 298 298 297 297 296 295 293 293 293 292 291 291 290 290 290 291 291 291 291 291 290 290 290 290 290 291 291 291 291 291 291 291 291 291 291 292 292 293 293 292 292 293 293 293 294 293 293 292 291 291 291 291 291 291 291
300 300 300 300 300 300 300 300 300 300 299 298 297 298 298 299 299 299 299 298 297 297 296 295 293 292 292 292 291 290 290 290 290 290 291 291 291 290 290 290 290 290 290 290 290 290 291 290 290 290 291 291 291 292 292 292 293 293 292 293 293 294 294 293 293 292 292 291 291 291 291 291 291 291
300 300 300 300 300 300 300 300 299 298 297 297 298 298 298 298 298 298 298 297 297 296 295 293 292 292 291 291 290 290 289 289 290 290 290 290 290 289 289 289 289 289 289 289 290 290 290 290 290 290 291 291 291 292 292 293 293 292 293 293 294 294 294 293 292 292 291 291 290 290 290 290 290 290
299 299 299 299 299 299 299 298 298 297 297 298 298 297 297 297 297 297 297 296 296 295 293 292 291 291 290 290 289 289 289 289 290 290 290 289 289 289 289 289 289 289 289 290 290 290 290 290 290 290 291 291 291 292 293 293 293 293 293 294 294 294 293 293 292 292 291 291 290 290 290 290 290 290
298 298 297 297 297 297 297 297 297 297 297 297 297 296 297 297 297 296 296 296 295 293 292 292 291 290 290 289 289 289 289 289 290 290 289 289 289 289 289 289 289 289 289 290 290 290 290 291 291 290 291 291 291 292 293 293 294 294 294 294 294 294 293 293 292 291 291 291 290 290 289 289 290 290
Wind_Speed
14 15 16 16 16 16 16 17 16 13 13 13 12 5 3 9 13 14 12 10 9 8 6 6 5 3 5 6 6 6 5 5 5 5 4 4 5 6 7 7 9 11 13 15 17 18 19 17 14 12 11 12 12 13 14 14 13 12 12 12 12 12 11 11 12 12 12 12 13 13 13 13 13 13
14 14 14 13 14 15 16 17 16 14 13 14 11 6 3 5 5 7 9 10 10 9 7 7 5 3 4 6 6 5 4 5 5 4 3 2 2 3 5 7 10 12 14 16 18 19 20 20 20 18 16 16 15 15 16 16 16 15 14 13 13 13 13 13 13 13 14 14 14 14 14 14 15 15
13 12 12 12 12 13 14 16 16 15 14 14 12 9 6 6 4 1 4 7 8 9 8 6 4 3 5 5 5 5 5 4 4 4 3 2 2 3 5 7 9 11 13 15 17 19 20 22 23 23 22 22 21 20 20 20 20 19 17 14 13 13 14 14 14 15 15 16 15 15 15 15 15 15
12 11 11 11 11 12 13 15 15 16 17 15 14 12 10 9 8 6 4 3 4 8 9 6 4 4 6 7 5 5 5 4 3 3 2 1 1 2 4 5 7 9 11 13 15 17 19 21 23 24 25 25 25 25 25 25 24 22 20 16 14 14 14 14 15 15 16 16 17 17 17 17 16 16
12 11 10 10 11 12 13 15 15 16 18 17 15 14 14 13 12 10 9 6 4 7 10 8 6 6 7 8 6 6 6 5 3 2 2 2 2 3 4 4 5 7 9 12 13 15 17 20 22 24 26 26 26 27 28 28 27 25 22 19 17 16 16 16 16 16 17 17 17 17 17 18 18 18
13 12 12 11 11 12 13 14 16 17 18 17 15 15 15 15 14 13 12 10 7 7 9 9 8 8 8 8 7 6 6 5 3 3 3 4 4 5 5 5 5 7 9 11 13 15 17 19 21 23 24 26 28 29 29 29 28 26 24 20 18 17 17 17 17 18 18 19 19 18 18 17 18 18
14 14 14 13 12 13 13 14 16 17 16 15 13 13 13 13 15 16 15 13 9 8 9 9 8 8 9 8 7 6 6 6 5 4 4 5 6 6 6 6 7 8 10 12 14 16 17 19 20 22 24 27 29 30 29 29 28 26 24 21 18 17 15 15 16 17 18 20 21 21 20 19 18 18
17 17 16 15 14 14 14 14 15 15 14 13 12 11 11 11 14 16 17 15 12 9 10 10 8 8 8 7 7 7 7 8 8 8 7 7 8 8 8 9 9 10 11 13 14 16 17 18 20 22 26 29 30 29 29 28 27 25 22 20 18 16 15 15 15 16 17 18 20 21 22 22 22 21
16 18 18 17 16 16 15 14 14 13 13 13 12 12 12 11 12 15 16 16 14 11 11 10 9 9 9 8 8 8 8 9 10 10 9 10 10 10 10 11 12 12 12 14 15 16 17 19 21 24 27 29 29 29 28 27 26 23 22 20 18 17 16 15 15 15 16 18 19 22 24 25 26 25
14 16 18 19 19 18 17 16 16 15 15 14 13 12 12 12 12 14 16 16 14 12 11 11 10 10 9 8 9 9 9 10 11 11 12 12 13 13 13 13 13 13 14 15 16 17 18 20 23 25 28 30 30 29 28 27 25 23 21 20 19 19 18 17 17 18 19 20 23 25 26 27 27 27
13 14 16 18 19 19 19 18 18 17 16 16 15 13 12 12 13 15 15 15 14 13 13 12 12 11 10 10 10 11 11 12 13 13 14 15 16 16 15 15 14 14 15 16 17 18 19 21 24 27 30 30 29 27 26 25 23 21 19 19 19 19 19 20 21 22 24 25 26 28 28 28 28 27
14 14 15 16 17 17 17 17 16 16 16 17 16 15 14 14 14 15 15 15 15 15 15 15 15 14 13 13 13 14 15 15 15 15 15 16 17 18 17 16 16 16 17 17 17 18 21 23 27 30 30 29 27 26 25 23 21 19 18 17 17 18 19 21 23 25 26 27 27 28 28 28 28 27
16 15 16 16 16 16 16 16 16 16 17 17 17 16 16 17 17 17 17 17 17 16 17 17 17 17 17 17 17 17 18 18 17 16 16 17 18 19 18 18 19 19 18 19 20 21 24 27 29 30 29 28 27 26 25 23 22 20 20 19 20 21 22 23 24 25 26 27 28 28 29 29 28 26
18 18 18 17 18 18 18 18 18 18 19 19 18 18 17 18 19 19 19 19 18 18 18 18 18 19 20 20 20 20 20 20 19 19 18 19 20 21 21 21 22 21 21 21 22 24 26 28 28 28 27 26 26 25 24 23 22 22 22 23 24 25 25 26 27 27 27 27 28 29 30 30 28 27
20 20 20 20 20 20 21 21 20 20 21 21 21 21 20 19 19 19 18 18 19 19 20 20 21 22 23 22 22 22 22 22 22 21 20 20 21 22 22 22 22 22 22 22 24 25 27 27 26 26 26 25 24 23 22 22 22 23 23 24 26 27 27 28 28 27 27 28 28 28 29 28 28 28
22 22 22 23 23 22 22 22 22 22 21 22 22 22 22 21 20 20 20 20 20 20 21 21 23 24 25 24 24 24 23 22 22 21 21 20 21 22 22 22 22 22 23 24 25 26 26 25 23 23 25 24 23 23 22 22 23 24 25 26 27 27 27 27 26 26 27 28 28 28 29 29 28 28
25 25 25 25 25 24 23 23 23 23 22 22 21 21 22 23 23 23 23 22 21 20 21 22 23 24 25 26 26 25 23 22 21 21 20 20 20 21 21 22 23 24 24 23 23 23 23 23 22 21 22 23 23 22 23 24 25 26 27 27 27 27 27 27 27 27 28 28 29 29 29 29 29 29
24 25 26 26 26 26 26 26 25 25 24 24 23 23 23 24 25 26 25 24 23 22 22 23 24 24 25 26 26 25 24 23 21 20 19 19 20 20 21 23 23 23 23 21 20 20 21 21 21 20 21 22 23 23 24 25 27 28 28 28 28 29 29 29 29 28 28 28 28 28 28 28 29 29
23 24 24 25 26 26 27 28 28 28 28 27 27 26 27 27 27 27 27 27 25 24 23 23 24 24 25 26 26 25 25 23 21 20 20 20 20 21 22 23 22 22 21 19 18 19 20 20 19 19 20 21 22 23 24 26 27 27 28 29 29 29 29 28 28 28 27 27 26 25 24 24 25 26
27 26 26 27 27 27 28 28 28 29 30 30 30 31 32 32 30 29 30 30 29 27 26 26 26 26 26 26 25 25 25 23 22 21 21 21 22 22 21 21 20 19 18 18 18 18 19 19 19 19 20 21 22 23 24 26 27 28 29 30 29 28 27 27 27 26 24 23 21 20 20 21 21 22
33 32 32 31 31 31 31 30 30 31 33 33 34 34 35 34 33 32 32 32 32 31 31 31 30 27 25 25 24 24 24 23 23 22 22 22 21 19 18 17 17 17 17 18 18 17 18 20 22 22 22 22 22 23 24 25 27 29 30 28 26 25 25 24 23 21 19 18 17 18 18 18 19 19
36 37 37 36 36 36 34 34 34 36 38 39 39 38 38 37 35 35 34 32 32 33 32 31 28 26 25 24 24 24 23 23 23 23 22 20 18 16 15 15 16 16 17 17 17 18 20 22 24 25 25 24 23 23 24 26 28 29 28 26 23 21 20 19 18 17 16 15 15 16 16 16 18 19
32 34 36 37 38 39 39 39 39 40 43 44 41 37 38 37 37 36 35 33 33 33 31 29 27 26 26 25 24 24 23 23 22 21 19 17 16 14 14 14 14 15 17 18 19 20 22 24 25 26 27 26 25 25 25 27 28 28 26 23 19 17 16 16 16 15 15 15 15 15 16 17 18 20
26 27 29 31 33 36 38 39 40 43 45 44 37 33 35 37 36 35 33 32 32 31 29 27 25 25 25 25 24 23 23 21 19 17 15 14 13 13 13 13 14 15 17 19 21 22 23 25 26 27 27 27 28 28 28 27 27 26 24 21 17 15 15 16 15 15 15 15 16 16 17 17 19 21
26 25 24 25 26 29 32 34 38 41 44 44 41 38 37 35 32 30 29 29 29 29 27 26 25 24 25 24 23 22 20 17 15 14 13 12 12 12 13 14 15 17 19 21 22 23 25 26 27 27 27 28 29 30 30 28 25 24 22 20 17 16 16 16 16 16 16 16 17 17 18 19 20 21
29 27 25 24 23 24 25 27 31 35 38 42 43 39 33 30 29 29 28 28 27 28 27 24 23 24 24 23 21 18 16 14 13 12 12 12 12 13 14 15 16 18 20 22 23 25 26 26 27 28 28 28 28 29 29 28 25 22 22 20 18 17 17 17 17 17 17 18 18 18 19 20 21 23
32 31 30 28 24 23 23 25 27 29 32 38 40 37 33 30 29 29 28 26 26 27 27 24 24 24 23 21 19 16 14 13 12 11 11 11 12 13 15 16 18 19 21 23 25 26 26 26 27 28 27 27 27 28 28 28 26 24 23 19 17 16 17 17 18 17 17 18 18 19 20 21 22 23
35 34 33 32 29 26 25 26 28 29 30 33 35 34 32 31 29 28 28 27 27 27 28 27 25 24 22 19 17 15 13 12 11 10 10 11 13 14 16 17 19 20 22 24 25 26 27 26 26 26 26 25 26 26 27 27 27 26 24 19 16 16 17 17 17 17 17 18 19 20 21 21 22 22
37 36 35 35 34 32 30 29 29 29 29 29 30 30 30 31 30 28 28 28 28 29 29 27 25 23 21 18 15 14 12 11 10 10 11 12 13 15 16 18 20 21 23 24 25 25 26 25 25 24 24 24 24 26 27 27 27 25 23 20 19 18 17 17 17 18 18 19 19 19 20 21 21 21
35 36 36 36 36 35 34 32 31 30 28 27 27 28 30 31 30 28 29 31 32 30 28 26 24 22 20 17 15 13 12 11 10 11 12 12 13 15 17 19 21 22 23 24 24 24 24 23 23 23 23 23 24 24 24 25 24 21 19 20 20 20 19 18 18 18 18 18 19 19 19 19 19 20
32 32 33 34 34 35 34 33 33 32 30 28 27 28 30 32 32 31 32 34 34 31 28 26 24 21 19 17 15 14 12 11 11 11 11 12 13 16 17 19 20 21 22 22 22 22 22 21 20 21 21 21 21 20 20 20 20 19 17 18 19 20 20 20 18 17 16 18 19 19 18 17 18 19
30 30 29 29 30 32 32 32 31 30 28 27 27 27 29 32 33 32 32 33 33 30 27 25 23 21 19 17 15 14 12 11 11 10 11 13 15 17 18 19 19 19 20 20 20 20 19 18 17 17 18 18 18 17 17 17 17 16 16 17 18 18 19 18 17 16 17 18 19 19 19 19 19 20
28 28 26 25 25 26 26 26 25 23 22 22 23 25 27 31 33 33 33 34 32 28 25 23 21 20 18 17 15 13 12 10 10 11 12 14 16 17 18 18 18 18 18 18 18 17 15 13 14 14 15 16 16 17 17 16 15 14 15 18 19 18 15 13 14 16 17 18 20 22 22 21 19 20
24 25 25 23 22 22 20 19 19 19 20 21 22 23 25 28 30 32 33 31 26 22 21 19 18 17 16 15 13 12 11 10 10 11 13 14 16 16 16 15 15 15 16 16 15 13 11 11 11 12 12 13 13 13 14 14 14 14 16 17 18 16 12 11 12 13 14 18 22 24 24 22 19 18
21 21 22 23 23 24 22 20 19 19 20 23 25 25 25 27 29 31 30 26 22 21 19 17 16 14 13 13 12 11 10 10 10 11 12 14 14 14 13 13 13 14 15 14 12 10 11 11 12 12 13 12 8 6 7 10 12 14 16 16 14 13 12 11 11 11 13 17 20 22 24 22 20 18
21 18 17 18 20 21 22 22 21 21 22 26 30 29 28 29 28 27 25 23 21 20 18 16 15 14 12 12 11 10 9 9 9 10 11 11 11 11 11 12 14 14 13 11 10 10 10 11 13 14 16 16 12 6 4 6 8 12 16 15 12 10 11 10 9 11 14 17 19 20 22 22 21 19
23 19 16 14 14 15 16 18 21 23 25 28 31 30 29 27 25 23 22 21 19 17 16 14 13 12 11 10 9 9 8 8 8 9 9 9 9 10 11 12 13 13 10 8 8 9 9 9 12 14 15 17 17 15 11 8 4 7 14 14 10 9 10 10 10 12 15 17 18 19 20 21 20 19
24 22 18 15 14 14 14 15 19 23 26 28 29 27 25 24 23 23 22 20 18 16 14 12 10 9 9 9 8 8 8 8 8 7 7 8 8 10 11 12 12 11 8 5 5 7 8 9 11 12 14 16 18 18 17 11 5 3 10 12 11 9 10 11 13 15 18 19 18 18 18 19 18 17
25 24 20 18 16 16 15 16 18 21 24 26 27 27 26 26 26 25 22 20 17 15 12 11 9 9 8 7 7 8 8 7 6 6 7 8 8 10 11 11 9 6 5 3 3 5 7 8 10 11 13 15 16 17 18 16 10 5 7 10 9 8 9 12 16 18 20 20 18 16 15 15 14 14
24 23 21 18 17 16 16 16 17 21 24 26 27 29 30 30 27 24 21 18 16 14 12 11 10 9 8 7 7 6 6 5 5 6 7 8 8 9 9 8 5 3 2 2 3 5 7 9 11 13 14 15 16 16 16 15 11 7 6 6 6 7 11 15 17 18 19 19 17 15 13 12 11 11
18 17 16 15 15 15 15 16 18 21 24 26 29 31 30 28 24 21 19 17 15 13 12 10 8 7 6 5 4 4 4 5 6 7 7 7 6 6 5 4 3 3 3 3 4 6 8 10 12 13 13 14 16 15 13 12 8 4 3 3 5 9 12 15 16 17 17 16 15 14 13 12 12 12
11 12 12 13 14 15 16 17 20 22 25 30 33 30 26 23 21 19 18 16 14 12 9 7 5 4 4 3 3 3 4 6 7 6 6 4 3 3 2 0 1 3 5 5 5 7 9 10 11 11 11 13 15 15 12 10 5 1 1 3 7 10 12 13 15 15 15 14 14 14 13 14 16 17
9 10 11 12 13 14 16 18 21 25 30 33 30 27 24 22 20 18 17 16 14 10 6 4 4 4 3 3 2 3 5 6 6 4 4 3 2 1 1 1 0 3 5 6 7 9 10 9 10 10 10 12 14 13 10 6 4 1 1 4 8 9 10 12 15 14 13 13 14 14 13 14 18 20
10 10 11 11 12 13 14 16 21 29 32 30 27 25 23 21 18 16 15 13 11 7 5 4 4 3 3 2 3 4 5 6 4 3 4 4 3 3 2 1 3 4 4 6 8 10 10 10 10 11 11 11 13 12 7 4 3 3 3 5 8 8 9 11 13 12 12 13 14 14 13 13 16 19
9 8 7 8 9 11 13 17 24 29 29 26 25 23 21 18 17 16 13 10 7 6 5 5 4 4 3 2 3 5 6 4 3 4 4 4 5 5 4 5 6 5 4 5 7 10 10 10 11 12 11 11 12 11 8 4 3 3 4 7 8 8 8 10 11 11 11 12 12 13 14 14 16 18
Wind_Direction
177 178 181 183 182 181 186 191 194 195 194 190 179 166 186 176 160 163 180 185 179 172 157 143 133 134 140 130 125 120 108 120 134 132 122 109 104 97 86 69 48 39 36 30 25 23 22 22 21 19 17 16 17 16 14 9 3 354 345 339 335 331 327 323 319 315 312 309 306 303 300 297 294 292
166 169 173 176 177 179 180 181 185 186 185 187 186 177 178 184 159 143 159 172 181 182 170 155 143 148 164 145 130 124 120 130 141 143 134 99 95 91 68 47 34 28 26 22 18 15 13 11 10 8 4 1 1 2 3 2 359 354 346 337 331 328 324 321 319 316 314 311 310 308 305 301 298 294
158 156 161 168 176 183 184 184 185 187 190 193 198 204 208 208 217 188 150 164 181 186 177 162 152 170 192 179 150 137 138 145 149 150 143 90 67 65 51 39 29 23 18 13 11 9 7 4 2 0 357 354 353 353 353 353 352 350 346 338 327 320 318 315 313 311 311 310 309 309 308 307 304 300
164 161 161 164 174 185 189 191 191 191 196 202 206 214 222 219 221 233 228 202 190 188 179 169 173 191 199 198 179 149 142 151 165 164 158 135 66 31 29 25 18 13 7 3 1 0 360 358 356 354 352 350 348 347 347 347 346 345 343 338 328 320 316 314 311 308 307 307 307 307 307 307 307 304
178 184 182 173 176 183 186 189 193 195 199 205 213 222 226 225 223 230 234 228 213 202 191 180 187 202 199 196 189 163 147 149 163 178 211 252 274 316 335 348 353 352 350 349 349 349 350 350 349 349 347 345 343 341 341 342 342 341 339 335 328 322 318 317 315 313 311 310 308 307 307 306 306 305
191 199 202 192 185 186 189 191 192 195 199 204 212 218 222 224 225 228 231 229 229 223 206 192 195 204 200 195 191 176 164 168 180 203 254 275 281 295 302 306 317 324 328 332 334 337 339 341 342 342 341 338 337 337 338 339 338 337 334 329 324 320 318 317 318 317 318 317 316 313 310 308 307 306
203 207 209 205 198 191 189 189 188 188 192 199 206 211 216 220 223 228 231 229 234 238 220 210 210 208 204 200 196 191 193 204 217 235 260 271 276 283 280 275 286 300 309 317 322 326 329 334 336 335 333 332 333 334 336 336 336 333 329 324 319 316 315 315 316 319 321 322 322 320 317 314 312 310
215 213 211 209 206 199 192 188 188 191 197 205 212 218 222 221 221 228 231 229 236 243 229 224 222 210 205 204 201 207 216 224 233 244 257 265 271 273 266 269 282 293 300 307 313 318 323 327 328 327 328 329 331 332 334 334 333 330 326 320 314 310 309 310 313 315 318 321 321 319 318 318 318 317
218 213 212 212 209 207 206 205 208 215 222 226 228 229 231 226 216 220 226 229 235 238 232 231 227 215 213 212 212 221 232 237 240 247 255 260 266 270 270 275 282 287 292 299 306 313 318 320 322 324 325 326 328 329 331 331 330 327 323 319 314 311 309 308 310 310 310 312 313 314 317 321 322 321
211 207 210 213 213 214 218 223 230 236 239 240 239 236 233 223 208 209 220 229 235 235 229 229 230 229 229 226 227 232 235 240 244 249 254 257 260 267 272 274 276 280 287 294 302 308 312 315 318 320 320 321 323 326 327 327 325 323 320 317 316 316 316 315 315 313 310 311 312 315 319 323 323 322
205 206 209 214 217 222 227 233 239 243 244 244 243 241 235 223 212 213 223 230 234 234 230 229 233 237 237 237 237 237 236 238 243 248 254 257 259 265 269 269 269 275 283 290 298 304 309 312 314 314 316 319 322 324 324 323 321 318 315 312 312 314 316 317 317 316 314 314 315 316 319 321 321 320
205 206 210 215 219 223 229 236 242 246 249 247 244 242 242 239 235 235 237 238 237 237 236 237 239 239 239 240 239 238 237 239 243 248 254 256 259 263 264 263 266 272 280 287 295 300 304 307 309 311 315 318 320 321 321 320 317 315 312 311 309 309 310 311 312 311 311 312 313 314 316 317 318 317
211 210 213 216 220 224 229 235 242 248 252 252 248 246 248 249 249 249 249 248 246 242 240 241 241 241 242 243 242 242 243 244 246 250 252 253 256 258 258 260 265 272 278 284 290 294 297 302 307 310 313 315 317 318 317 315 314 313 312 312 310 308 308 308 309 309 309 309 310 311 313 314 314 313
218 219 221 222 225 230 234 237 242 246 249 252 251 251 251 251 251 249 247 248 250 251 251 251 250 249 249 249 247 246 248 250 252 252 252 251 252 253 255 258 264 269 275 281 287 292 297 303 308 310 313 315 316 316 315 314 314 314 314 313 312 312 313 313 312 311 309 309 308 309 309 310 310 309
228 229 230 231 233 236 239 242 244 246 249 251 252 252 251 248 246 244 244 247 251 255 258 260 261 260 259 256 252 249 249 251 253 255 255 251 249 250 253 256 261 269 276 282 289 295 300 305 308 311 313 315 315 315 315 315 315 314 312 311 312 313 314 313 312 310 309 308 307 306 305 304 304 304
244 243 242 242 243 244 246 246 247 249 251 251 252 254 253 250 246 244 244 248 251 255 260 263 264 266 265 261 256 253 252 253 254 256 255 252 249 249 251 254 261 270 276 283 290 297 302 305 309 312 314 314 315 315 315 314 312 311 310 310 312 313 313 311 309 307 306 305 304 303 301 300 299 299
253 252 251 252 253 253 252 250 251 254 254 253 253 254 254 253 251 250 251 251 251 256 262 265 267 269 268 264 262 260 259 259 259 258 254 251 250 250 253 258 266 273 280 286 293 298 302 307 312 314 314 313 313 313 313 312 311 311 312 315 316 316 314 312 310 308 307 305 303 300 298 296 295 296
259 258 258 260 262 262 261 260 260 261 260 257 256 255 254 252 252 252 252 250 251 257 265 270 273 273 270 267 265 264 264 264 262 258 254 250 250 253 259 266 273 281 288 293 299 302 305 309 313 313 312 311 311 311 312 311 312 315 318 320 320 319 317 315 314 312 310 308 305 301 296 294 294 295
262 264 266 267 268 268 268 268 268 268 267 263 261 259 257 255 254 253 252 251 254 261 269 274 277 275 270 266 263 261 262 261 257 252 249 250 254 260 267 273 279 285 289 295 302 305 307 310 312 311 309 308 307 308 310 311 314 318 321 323 323 321 320 318 317 315 312 310 307 304 300 296 295 296
260 262 264 265 267 268 269 269 269 270 268 265 264 263 261 259 258 257 255 255 258 263 269 275 279 276 269 262 258 255 255 253 249 246 248 254 260 266 271 276 281 285 290 298 304 306 309 311 311 310 308 307 306 307 309 312 316 319 322 324 324 322 320 318 316 314 312 311 309 306 303 300 299 300
257 258 259 260 262 264 265 267 266 264 263 261 260 260 258 256 256 256 255 256 259 265 270 275 277 275 267 258 251 247 245 244 243 247 254 260 264 267 271 276 282 288 295 301 305 308 310 311 311 311 309 308 307 307 309 312 315 319 322 324 324 321 318 316 313 311 309 308 306 304 303 303 303 302
254 256 256 258 259 261 263 265 264 262 261 258 256 256 257 256 256 257 258 259 263 269 273 275 274 270 262 251 244 241 241 242 246 252 256 260 263 266 272 279 286 293 299 303 306 309 310 310 311 311 309 306 305 305 308 311 315 319 322 323 322 318 314 311 309 306 304 303 301 299 300 302 302 303
256 256 256 257 258 260 262 263 263 263 261 257 252 251 255 259 261 262 262 263 266 271 274 273 271 265 255 244 239 240 241 243 247 252 255 260 266 271 277 284 291 297 301 304 307 310 310 310 311 311 311 309 307 307 309 313 317 320 321 321 318 311 307 306 304 301 299 297 296 296 298 301 303 305
258 259 260 258 257 258 260 261 263 263 263 261 258 254 257 260 262 263 264 264 267 270 270 268 264 256 247 239 236 237 238 241 246 252 260 268 274 280 287 292 297 300 302 305 308 310 310 310 311 311 312 312 310 309 311 315 319 321 319 317 313 305 303 303 301 297 294 292 294 296 299 303 305 308
256 256 259 261 263 264 264 264 265 266 267 269 268 264 264 266 266 266 264 264 266 265 262 258 252 242 234 231 230 231 234 239 248 258 269 277 282 290 297 300 301 302 303 305 307 309 310 310 310 310 310 310 309 310 312 316 321 319 315 314 312 308 306 304 300 297 293 291 294 297 300 304 308 312
258 256 256 258 264 270 271 270 270 271 272 272 269 267 269 272 272 270 266 263 260 256 252 246 235 226 224 225 226 228 235 244 255 265 273 281 290 298 301 301 301 302 304 305 307 308 309 310 309 309 309 309 309 308 310 315 319 316 312 311 310 310 311 308 303 301 297 296 297 298 302 306 310 314
263 262 259 257 257 261 268 272 275 275 274 273 272 272 276 277 276 273 269 261 250 245 242 235 223 218 220 223 226 231 241 250 258 266 274 285 293 296 296 296 298 301 304 306 307 308 308 308 307 308 307 307 306 305 306 311 314 312 310 310 307 309 312 310 307 305 302 301 301 302 305 309 312 313
266 265 262 259 255 253 257 263 269 271 271 272 273 275 277 276 273 270 265 253 241 236 232 224 218 217 219 223 230 237 244 249 255 263 274 283 287 288 291 295 299 302 305 306 306 306 306 306 306 305 303 302 300 301 303 306 309 310 311 310 308 310 315 313 309 307 304 302 304 306 309 312 315 316
266 266 265 263 260 257 255 256 259 263 265 268 272 274 275 272 268 265 257 245 233 227 222 216 214 215 218 224 232 238 242 247 253 261 271 278 282 288 295 299 302 305 305 306 306 306 305 305 304 301 299 296 295 296 298 301 304 308 311 312 311 312 315 315 313 312 309 307 308 311 316 320 322 323
265 264 264 263 262 261 259 258 259 261 264 267 272 274 275 272 266 259 250 240 229 219 214 212 212 215 220 226 229 230 234 241 249 260 270 278 286 294 299 302 304 305 305 305 304 304 303 303 302 298 295 293 294 295 296 298 302 306 311 313 312 312 315 318 319 319 315 313 314 317 321 326 327 326
265 265 265 263 262 260 259 260 262 264 265 266 265 267 270 270 263 254 246 238 228 215 209 210 212 215 220 223 221 223 230 237 247 260 272 283 292 296 299 302 304 303 303 302 302 303 303 303 300 298 296 296 298 299 298 299 303 309 311 311 310 312 317 321 324 324 321 319 319 321 324 327 325 323
266 266 267 267 264 260 258 258 259 260 261 260 259 261 261 256 250 246 237 226 218 211 206 207 210 212 214 214 216 221 228 236 249 265 279 288 294 297 299 301 301 300 300 301 303 304 304 301 298 297 299 302 304 304 302 304 310 314 311 308 309 313 318 322 324 328 328 325 322 322 325 328 326 321
269 267 267 267 265 260 256 255 255 256 257 256 257 258 253 243 238 234 224 213 208 205 202 205 210 211 209 209 213 219 227 238 255 271 283 291 295 297 298 297 296 297 300 303 307 307 304 299 297 297 302 306 308 307 307 309 313 313 308 306 309 314 320 325 330 334 333 328 324 323 325 329 329 323
269 268 266 266 266 262 258 257 258 259 259 257 254 249 241 233 227 221 213 206 203 202 204 209 214 212 210 211 213 219 230 245 261 276 286 292 293 293 293 294 297 302 307 310 311 308 303 297 296 299 305 308 305 303 306 309 310 307 304 304 310 317 327 336 339 338 334 328 325 323 323 328 334 329
265 266 266 267 268 268 266 264 263 262 259 253 245 234 224 218 214 210 205 201 201 203 204 208 211 210 212 215 218 224 238 253 267 279 285 287 287 289 293 301 307 312 316 316 310 305 306 309 311 316 323 324 313 290 295 310 310 302 299 304 313 322 330 339 341 336 329 327 325 323 323 330 338 339
262 263 264 267 269 267 265 262 259 259 255 245 236 226 215 207 204 202 199 197 198 201 201 202 205 209 213 218 224 234 248 261 271 278 281 284 288 295 302 310 315 319 321 318 311 312 320 328 331 333 335 337 337 332 332 340 323 300 299 310 321 324 327 334 338 331 327 328 329 329 330 335 341 344
261 261 261 264 267 268 266 260 254 251 247 238 230 221 211 203 197 194 194 192 191 192 193 197 203 210 216 223 233 245 257 267 273 276 281 288 295 301 308 314 318 323 327 326 323 325 330 336 336 333 331 332 334 336 346 9 7 296 301 314 325 327 326 330 331 330 332 334 335 334 335 337 341 345
262 260 257 256 260 266 267 261 253 249 243 233 222 213 207 200 192 187 185 184 181 181 185 194 205 214 222 231 245 258 265 270 274 280 290 299 307 313 318 321 325 330 339 345 333 326 327 329 328 325 325 328 332 334 338 353 15 306 300 313 324 330 329 331 335 336 336 336 339 342 341 340 340 342
266 263 259 257 260 264 265 261 255 250 242 230 216 207 201 193 185 178 175 175 177 183 191 201 212 221 231 246 262 269 270 274 284 298 310 318 322 323 323 327 336 348 358 358 328 315 319 322 322 325 328 330 332 331 331 337 349 338 307 311 325 338 340 340 340 337 333 335 343 351 349 342 338 338
270 269 267 266 265 263 261 259 254 248 240 228 211 198 190 182 176 174 176 180 185 193 201 210 219 228 238 252 262 266 272 288 306 318 323 324 323 323 325 332 346 355 349 346 334 325 326 328 332 337 336 331 329 329 328 330 334 327 306 307 328 347 345 340 336 332 331 336 347 355 355 350 344 341
272 273 275 275 272 265 257 252 249 244 232 213 194 184 181 180 181 185 188 189 192 199 207 216 223 228 232 237 242 257 285 309 319 323 323 320 320 324 325 333 351 341 326 333 348 346 342 337 337 338 336 330 330 332 332 332 331 316 293 314 336 342 340 336 333 333 336 343 352 357 357 356 356 355
281 284 284 281 275 266 256 250 244 230 208 190 181 180 183 187 189 190 190 188 189 195 204 212 215 214 212 214 230 264 299 313 317 317 313 308 316 324 316 270 52 338 330 341 350 343 338 334 334 335 333 330 333 336 339 344 349 315 246 331 340 338 337 338 339 341 344 351 359 359 355 356 2 3
302 299 293 284 272 261 255 248 232 208 190 183 184 187 187 185 185 185 185 184 183 183 187 194 198 193 188 203 243 279 298 304 309 313 319 329 350 10 170 169 260 324 342 359 353 341 340 344 344 341 337 333 333 336 342 353 3 6 342 345 343 339 338 341 344 346 347 355 4 5 358 360 6 5
319 310 297 283 269 256 249 235 211 193 184 183 184 181 178 177 175 173 173 172 168 163 166 178 185 179 180 216 266 282 289 297 313 346 358 10 45 84 88 21 343 340 358 7 353 347 357 5 357 348 345 338 335 338 346 351 353 7 7 346 336 334 338 340 343 348 351 355 3 7 6 10 15 11
325 316 297 278 261 243 223 201 186 179 176 176 175 173 173 173 169 165 162 157 148 145 156 168 174 173 180 229 271 278 284 302 348 11 14 39 69 68 35 7 356 353 358 2 356 357 5 5 356 351 350 342 336 339 339 321 309 333 338 325 322 328 336 338 341 351 356 356 358 4 9 16 20 17